Time,TemperatureF,DewpointF,PressureIn,WindDirection,WindDirectionDegrees,WindSpeedMPH,WindSpeedGustMPH,Humidity,HourlyPrecipIn,Conditions,Clouds,dailyrainin,SoftwareType,DateUTC
2013-08-05 00:01:00,68.2,61.8,29.89,ENE,68,0.0,0.0,80,0.00,RA,,0.00,WeatherDisplay:10.37,2013-08-05 04:01:00,
2013-08-05 00:02:00,68.2,61.8,29.89,ENE,68,0.0,0.0,80,0.00,RA,,0.00,WeatherDisplay:10.37,2013-08-05 04:02:00,
2013-08-05 00:03:00,68.2,61.8,29.89,ENE,68,0.0,0.0,80,0.00,RA,,0.00,WeatherDisplay:10.37,2013-08-05 04:03:00,
2013-08-05 00:08:00,68.2,61.8,29.89,ENE,68,0.0,0.0,80,0.00,RA,,0.00,WeatherDisplay:10.37,2013-08-05 04:08:00,
2013-08-05 00:13:00,68.2,61.8,29.89,ENE,68,0.0,0.0,80,0.00,CLR,,0.00,WeatherDisplay:10.37,2013-08-05 04:13:00,
2013-08-05 00:18:00,66.7,61.1,29.89,NE,45,0.0,0.0,82,0.00,CLR,,0.00,WeatherDisplay:10.37,2013-08-05 04:18:00,
2013-08-05 00:23:00,66.7,61.1,29.89,NE,45,0.0,0.0,82,0.00,CLR,,0.00,WeatherDisplay:10.37,2013-08-05 04:23:00,
2013-08-05 00:28:00,66.7,61.1,29.89,NE,45,0.0,0.0,82,0.00,CLR,,0.00,WeatherDisplay:10.37,2013-08-05 04:28:00,
2013-08-05 00:34:00,66.7,61.1,29.89,NE,45,0.0,0.0,82,0.00,CLR,,0.00,WeatherDisplay:10.37,2013-08-05 04:34:00,
2013-08-05 00:39:00,66.7,61.1,29.89,NE,45,0.0,0.0,82,0.00,CLR,,0.00,WeatherDisplay:10.37,2013-08-05 04:39:00,
2013-08-05 00:43:00,66.4,60.7,29.89,NE,45,0.0,0.0,82,0.00,CLR,,0.00,WeatherDisplay:10.37,2013-08-05 04:43:00,
2013-08-05 00:49:00,66.4,60.7,29.89,NE,45,0.0,0.0,82,0.00,CLR,,0.00,WeatherDisplay:10.37,2013-08-05 04:49:00,
2013-08-05 00:54:00,66.4,60.7,29.89,NE,45,0.0,0.0,82,0.00,CLR,,0.00,WeatherDisplay:10.37,2013-08-05 04:54:00,
2013-08-05 00:59:00,66.4,60.7,29.89,NE,45,0.0,0.0,82,0.00,CLR,,0.00,WeatherDisplay:10.37,2013-08-05 04:59:00,
2013-08-05 01:04:00,66.4,60.7,29.89,NE,45,0.0,0.0,82,0.00,CLR,,0.00,WeatherDisplay:10.37,2013-08-05 05:04:00,
2013-08-05 01:09:00,66.4,60.7,29.89,NE,45,0.0,0.0,82,0.00,CLR,,0.00,WeatherDisplay:10.37,2013-08-05 05:09:00,
2013-08-05 01:14:00,66.4,60.7,29.89,NE,45,0.0,0.0,82,0.00,CLR,,0.00,WeatherDisplay:10.37,2013-08-05 05:14:00,
2013-08-05 01:18:00,66.4,60.7,29.89,NE,45,0.0,0.0,82,0.00,CLR,,0.00,WeatherDisplay:10.37,2013-08-05 05:18:00,
2013-08-05 01:24:00,65.1,60.5,29.90,NE,45,0.0,0.0,85,0.00,CLR,,0.00,WeatherDisplay:10.37,2013-08-05 05:24:00,
2013-08-05 01:29:00,65.1,60.5,29.90,NE,45,0.0,0.0,85,0.00,CLR,,0.00,WeatherDisplay:10.37,2013-08-05 05:29:00,
2013-08-05 01:34:00,65.1,60.5,29.90,NE,45,0.0,0.0,85,0.00,CLR,,0.00,WeatherDisplay:10.37,2013-08-05 05:34:00,
2013-08-05 01:39:00,65.1,60.5,29.90,SSW,202,0.0,0.0,85,0.00,CLR,,0.00,WeatherDisplay:10.37,2013-08-05 05:39:00,
2013-08-05 01:44:00,65.1,60.5,29.90,SSW,202,0.0,0.0,85,0.00,CLR,,0.00,WeatherDisplay:10.37,2013-08-05 05:44:00,
2013-08-05 01:49:00,65.1,60.8,29.89,SSW,202,0.0,0.0,86,0.00,CLR,,0.00,WeatherDisplay:10.37,2013-08-05 05:49:00,
2013-08-05 01:54:00,65.1,60.8,29.89,SSW,202,0.0,0.0,86,0.00,CLR,,0.00,WeatherDisplay:10.37,2013-08-05 05:54:00,
2013-08-05 01:58:00,65.1,60.8,29.89,SSW,202,0.0,0.0,86,0.00,CLR,,0.00,WeatherDisplay:10.37,2013-08-05 05:58:00,
2013-08-05 02:04:00,65.1,60.8,29.89,SSW,202,0.0,0.0,86,0.00,CLR,,0.00,WeatherDisplay:10.37,2013-08-05 06:04:00,
2013-08-05 02:09:00,65.1,60.8,29.89,SSW,202,0.0,0.0,86,0.00,CLR,,0.00,WeatherDisplay:10.37,2013-08-05 06:09:00,
2013-08-05 02:14:00,65.1,60.8,29.89,SSW,202,0.0,0.0,86,0.00,CLR,,0.00,WeatherDisplay:10.37,2013-08-05 06:14:00,
2013-08-05 02:19:00,65.1,60.8,29.89,SSW,202,0.0,0.0,86,0.00,CLR,,0.00,WeatherDisplay:10.37,2013-08-05 06:19:00,
2013-08-05 02:23:00,65.1,60.8,29.89,SSW,202,0.0,0.0,86,0.00,CLR,,0.00,WeatherDisplay:10.37,2013-08-05 06:23:00,
2013-08-05 02:29:00,65.1,60.8,29.89,SSW,202,0.0,0.0,86,0.00,CLR,,0.00,WeatherDisplay:10.37,2013-08-05 06:29:00,
2013-08-05 02:34:00,65.1,60.8,29.89,SSW,202,0.0,0.0,86,0.00,CLR,,0.00,WeatherDisplay:10.37,2013-08-05 06:34:00,
2013-08-05 02:39:00,65.1,60.8,29.89,SSW,202,0.0,0.0,86,0.00,CLR,,0.00,WeatherDisplay:10.37,2013-08-05 06:39:00,
2013-08-05 02:44:00,65.1,60.8,29.89,SSW,202,0.0,0.0,86,0.00,CLR,,0.00,WeatherDisplay:10.37,2013-08-05 06:44:00,
2013-08-05 02:48:00,65.1,60.8,29.89,SSW,202,0.0,0.0,86,0.00,CLR,,0.00,WeatherDisplay:10.37,2013-08-05 06:48:00,
2013-08-05 02:54:00,64.0,60.4,29.90,WNW,292,0.0,0.0,88,0.00,CLR,,0.00,WeatherDisplay:10.37,2013-08-05 06:54:00,
2013-08-05 02:59:00,64.0,60.4,29.90,WNW,292,0.0,0.0,88,0.00,CLR,,0.00,WeatherDisplay:10.37,2013-08-05 06:59:00,
2013-08-05 03:04:00,64.0,60.4,29.90,WNW,292,0.0,0.0,88,0.00,CLR,,0.00,WeatherDisplay:10.37,2013-08-05 07:04:00,
2013-08-05 03:09:00,64.0,60.4,29.90,WNW,292,0.0,0.0,88,0.00,CLR,,0.00,WeatherDisplay:10.37,2013-08-05 07:09:00,
2013-08-05 03:14:00,64.0,60.4,29.90,WNW,292,0.0,0.0,88,0.00,CLR,,0.00,WeatherDisplay:10.37,2013-08-05 07:14:00,
2013-08-05 03:19:00,64.0,60.4,29.90,WNW,292,0.0,0.0,88,0.00,CLR,,0.00,WeatherDisplay:10.37,2013-08-05 07:19:00,
2013-08-05 03:24:00,64.0,60.4,29.90,WNW,292,0.0,0.0,88,0.00,CLR,,0.00,WeatherDisplay:10.37,2013-08-05 07:24:00,
2013-08-05 03:28:00,64.0,60.4,29.90,WNW,292,0.0,0.0,88,0.00,CLR,,0.00,WeatherDisplay:10.37,2013-08-05 07:28:00,
2013-08-05 03:34:00,64.0,60.4,29.90,WNW,292,0.0,0.0,88,0.00,CLR,,0.00,WeatherDisplay:10.37,2013-08-05 07:34:00,
2013-08-05 03:39:00,64.0,60.4,29.90,WNW,292,0.0,0.0,88,0.00,CLR,,0.00,WeatherDisplay:10.37,2013-08-05 07:39:00,
2013-08-05 03:44:00,64.0,60.4,29.90,WNW,292,0.0,0.0,88,0.00,CLR,,0.00,WeatherDisplay:10.37,2013-08-05 07:44:00,
2013-08-05 03:48:00,64.0,60.4,29.90,WNW,292,0.0,0.0,88,0.00,CLR,,0.00,WeatherDisplay:10.37,2013-08-05 07:48:00,
2013-08-05 03:53:00,63.1,59.8,29.89,NNE,22,0.0,0.0,89,0.00,CLR,,0.00,WeatherDisplay:10.37,2013-08-05 07:53:00,
2013-08-05 03:59:00,63.1,59.8,29.89,NNE,22,0.0,0.0,89,0.00,CLR,,0.00,WeatherDisplay:10.37,2013-08-05 07:59:00,
2013-08-05 04:04:00,63.1,59.8,29.89,NNE,22,0.0,0.0,89,0.00,CLR,,0.00,WeatherDisplay:10.37,2013-08-05 08:04:00,
2013-08-05 04:09:00,63.1,59.8,29.89,NNE,22,0.0,0.0,89,0.00,CLR,,0.00,WeatherDisplay:10.37,2013-08-05 08:09:00,
2013-08-05 04:14:00,63.1,59.8,29.89,NNE,22,0.0,0.0,89,0.00,CLR,,0.00,WeatherDisplay:10.37,2013-08-05 08:14:00,
2013-08-05 04:15:00,63.1,59.8,29.89,NNE,22,0.0,0.0,89,0.00,CLR,,0.00,WeatherDisplay:10.37,2013-08-05 08:15:00,
2013-08-05 04:20:00,63.1,59.8,29.89,NNE,22,0.0,0.0,89,0.00,CLR,,0.00,WeatherDisplay:10.37,2013-08-05 08:20:00,
2013-08-05 04:25:00,63.1,59.8,29.89,NNE,22,0.0,0.0,89,0.00,CLR,,0.00,WeatherDisplay:10.37,2013-08-05 08:25:00,
2013-08-05 04:30:00,63.1,59.8,29.89,NNE,22,0.0,0.0,89,0.00,CLR,,0.00,WeatherDisplay:10.37,2013-08-05 08:30:00,
2013-08-05 04:35:00,63.1,59.8,29.89,NNE,22,0.0,0.0,89,0.00,CLR,,0.00,WeatherDisplay:10.37,2013-08-05 08:35:00,
2013-08-05 04:40:00,63.1,59.8,29.89,NNE,22,0.0,0.0,89,0.00,CLR,,0.00,WeatherDisplay:10.37,2013-08-05 08:40:00,
2013-08-05 04:45:00,63.1,59.8,29.89,NNE,22,0.0,0.0,89,0.00,CLR,,0.00,WeatherDisplay:10.37,2013-08-05 08:45:00,
2013-08-05 04:50:00,63.1,59.8,29.89,NNE,22,0.0,0.0,89,0.00,CLR,,0.00,WeatherDisplay:10.37,2013-08-05 08:50:00,
2013-08-05 04:54:00,63.1,59.8,29.89,NNE,22,0.0,0.0,89,0.00,CLR,,0.00,WeatherDisplay:10.37,2013-08-05 08:54:00,
2013-08-05 04:59:00,63.1,59.8,29.89,NNE,22,0.0,0.0,89,0.00,CLR,,0.00,WeatherDisplay:10.37,2013-08-05 08:59:00,
2013-08-05 05:05:00,63.1,59.8,29.89,NNE,22,0.0,0.0,89,0.00,CLR,,0.00,WeatherDisplay:10.37,2013-08-05 09:05:00,
2013-08-05 05:10:00,63.1,59.8,29.89,NNE,22,0.0,0.0,89,0.00,CLR,,0.00,WeatherDisplay:10.37,2013-08-05 09:10:00,
2013-08-05 05:16:00,61.9,58.9,29.89,NNE,22,0.0,0.0,90,0.00,CLR,,0.00,WeatherDisplay:10.37,2013-08-05 09:16:00,
2013-08-05 05:21:00,61.9,58.9,29.89,NNE,22,0.0,0.0,90,0.00,CLR,,0.00,WeatherDisplay:10.37,2013-08-05 09:21:00,
2013-08-05 05:25:00,61.9,58.9,29.89,NNE,22,0.0,0.0,90,0.00,CLR,,0.00,WeatherDisplay:10.37,2013-08-05 09:25:00,
2013-08-05 05:31:00,61.9,58.9,29.89,NNE,22,0.0,0.0,90,0.00,CLR,,0.00,WeatherDisplay:10.37,2013-08-05 09:31:00,
2013-08-05 05:36:00,61.9,58.9,29.89,NNE,22,0.0,0.0,90,0.00,CLR,,0.00,WeatherDisplay:10.37,2013-08-05 09:36:00,
2013-08-05 05:42:00,61.9,58.9,29.89,NNE,22,0.0,0.0,90,0.00,CLR,,0.00,WeatherDisplay:10.37,2013-08-05 09:42:00,
2013-08-05 05:47:00,61.9,58.9,29.89,NNE,22,0.0,0.0,90,0.00,CLR,,0.00,WeatherDisplay:10.37,2013-08-05 09:47:00,
2013-08-05 05:52:00,61.9,58.9,29.89,NNE,22,0.0,0.0,90,0.00,CLR,,0.00,WeatherDisplay:10.37,2013-08-05 09:52:00,
2013-08-05 05:57:00,61.9,58.9,29.89,NNE,22,0.0,0.0,90,0.00,CLR,,0.00,WeatherDisplay:10.37,2013-08-05 09:57:00,
2013-08-05 06:03:00,61.9,58.9,29.89,NNE,22,0.0,0.0,90,0.00,CLR,,0.00,WeatherDisplay:10.37,2013-08-05 10:03:00,
2013-08-05 06:08:00,61.5,58.6,29.89,NNE,22,0.0,0.0,90,0.00,CLR,,0.00,WeatherDisplay:10.37,2013-08-05 10:08:00,
2013-08-05 06:13:00,61.5,58.6,29.89,NNE,22,0.0,0.0,90,0.00,CLR,,0.00,WeatherDisplay:10.37,2013-08-05 10:13:00,
2013-08-05 06:18:00,61.5,58.6,29.89,NNE,22,0.0,0.0,90,0.00,CLR,,0.00,WeatherDisplay:10.37,2013-08-05 10:18:00,
2013-08-05 06:23:00,61.5,58.6,29.89,NNE,22,0.0,0.0,90,0.00,CLR,,0.00,WeatherDisplay:10.37,2013-08-05 10:23:00,
2013-08-05 06:28:00,61.5,58.6,29.89,NNE,22,0.0,0.0,90,0.00,CLR,,0.00,WeatherDisplay:10.37,2013-08-05 10:28:00,
2013-08-05 06:33:00,61.5,58.6,29.89,NNE,22,0.0,0.0,90,0.00,CLR,,0.00,WeatherDisplay:10.37,2013-08-05 10:33:00,
2013-08-05 06:38:00,61.5,58.6,29.89,NNE,22,0.0,0.0,90,0.00,CLR,,0.00,WeatherDisplay:10.37,2013-08-05 10:38:00,
2013-08-05 06:43:00,61.5,58.6,29.89,NNE,22,0.0,0.0,90,0.00,CLR,,0.00,WeatherDisplay:10.37,2013-08-05 10:43:00,
2013-08-05 06:49:00,61.5,58.6,29.89,NNE,22,0.0,0.0,90,0.00,CLR,,0.00,WeatherDisplay:10.37,2013-08-05 10:49:00,
2013-08-05 06:54:00,61.5,58.6,29.89,NNE,22,0.0,0.0,90,0.00,CLR,,0.00,WeatherDisplay:10.37,2013-08-05 10:54:00,
2013-08-05 06:59:00,61.0,58.0,29.91,NNE,22,0.0,0.0,90,0.00,CLR,,0.00,WeatherDisplay:10.37,2013-08-05 10:59:00,
2013-08-05 07:05:00,61.0,58.0,29.91,NNE,22,0.0,0.0,90,0.00,CLR,,0.00,WeatherDisplay:10.37,2013-08-05 11:05:00,
2013-08-05 07:10:00,61.0,58.0,29.91,NNE,22,0.0,0.0,90,0.00,CLR,,0.00,WeatherDisplay:10.37,2013-08-05 11:10:00,
2013-08-05 07:15:00,61.2,58.5,29.92,NNE,22,0.0,0.0,91,0.00,CLR,,0.00,WeatherDisplay:10.37,2013-08-05 11:15:00,
2013-08-05 07:20:00,61.2,58.5,29.92,NNE,22,0.0,0.0,91,0.00,CLR,,0.00,WeatherDisplay:10.37,2013-08-05 11:20:00,
2013-08-05 07:25:00,61.3,58.7,29.92,NNE,22,0.0,0.0,91,0.00,CLR,,0.00,WeatherDisplay:10.37,2013-08-05 11:25:00,
2013-08-05 07:30:00,61.3,58.7,29.92,NNE,22,0.0,0.0,91,0.00,CLR,,0.00,WeatherDisplay:10.37,2013-08-05 11:30:00,
2013-08-05 07:36:00,61.3,58.7,29.92,NNE,22,0.0,0.0,91,0.00,CLR,,0.00,WeatherDisplay:10.37,2013-08-05 11:36:00,
2013-08-05 07:41:00,61.3,58.7,29.92,NNE,22,0.0,0.0,91,0.00,CLR,,0.00,WeatherDisplay:10.37,2013-08-05 11:41:00,
2013-08-05 07:47:00,61.3,58.7,29.92,NNE,22,0.0,0.0,91,0.00,CLR,,0.00,WeatherDisplay:10.37,2013-08-05 11:47:00,
2013-08-05 07:51:00,61.9,59.2,29.92,NNE,22,0.0,0.0,91,0.00,CLR,,0.00,WeatherDisplay:10.37,2013-08-05 11:51:00,
2013-08-05 07:57:00,61.9,59.2,29.92,NNE,22,0.0,0.0,91,0.00,CLR,,0.00,WeatherDisplay:10.37,2013-08-05 11:57:00,
2013-08-05 08:01:00,61.9,59.2,29.92,NNE,22,0.0,0.0,91,0.00,CLR,,0.00,WeatherDisplay:10.37,2013-08-05 12:01:00,
2013-08-05 08:07:00,61.9,59.2,29.92,NNE,22,0.0,0.0,91,0.00,CLR,,0.00,WeatherDisplay:10.37,2013-08-05 12:07:00,
2013-08-05 08:12:00,61.9,59.2,29.92,NNE,22,0.0,0.0,91,0.00,CLR,,0.00,WeatherDisplay:10.37,2013-08-05 12:12:00,
2013-08-05 08:17:00,61.9,59.2,29.92,NNE,22,0.0,0.0,91,0.00,CLR,,0.00,WeatherDisplay:10.37,2013-08-05 12:17:00,
2013-08-05 08:23:00,61.9,59.2,29.92,NNE,22,0.0,0.0,91,0.00,CLR,,0.00,WeatherDisplay:10.37,2013-08-05 12:23:00,
2013-08-05 08:28:00,61.9,59.2,29.92,NNE,22,0.0,0.0,91,0.00,CLR,,0.00,WeatherDisplay:10.37,2013-08-05 12:28:00,
2013-08-05 08:33:00,61.9,59.2,29.92,NNE,22,0.0,0.0,91,0.00,CLR,,0.00,WeatherDisplay:10.37,2013-08-05 12:33:00,
2013-08-05 08:38:00,61.9,59.2,29.92,NNE,22,0.0,0.0,91,0.00,CLR,,0.00,WeatherDisplay:10.37,2013-08-05 12:38:00,
2013-08-05 08:43:00,61.9,59.2,29.92,NNE,22,0.0,0.0,91,0.00,CLR,,0.00,WeatherDisplay:10.37,2013-08-05 12:43:00,
2013-08-05 08:48:00,66.4,62.4,29.92,NNE,22,0.0,0.0,87,0.00,CLR,,0.00,WeatherDisplay:10.37,2013-08-05 12:48:00,
2013-08-05 08:53:00,66.7,62.1,29.93,NE,45,0.0,0.0,85,0.00,CLR,,0.00,WeatherDisplay:10.37,2013-08-05 12:53:00,
2013-08-05 08:58:00,66.7,62.1,29.93,NE,45,0.0,0.0,85,0.00,CLR,,0.00,WeatherDisplay:10.37,2013-08-05 12:58:00,
2013-08-05 09:03:00,66.7,62.1,29.93,NE,45,0.0,0.0,85,0.00,CLR,,0.00,WeatherDisplay:10.37,2013-08-05 13:03:00,
2013-08-05 09:08:00,66.7,62.1,29.93,NE,45,0.0,0.0,85,0.00,CLR,,0.00,WeatherDisplay:10.37,2013-08-05 13:08:00,
2013-08-05 09:12:00,68.2,61.8,29.92,NE,45,0.0,0.0,80,0.00,CLR,,0.00,WeatherDisplay:10.37,2013-08-05 13:12:00,
2013-08-05 09:18:00,68.2,61.8,29.92,NE,45,0.0,0.0,80,0.00,CLR,,0.00,WeatherDisplay:10.37,2013-08-05 13:18:00,
2013-08-05 09:23:00,68.9,61.4,29.93,ENE,68,0.0,0.0,77,0.00,CLR,,0.00,WeatherDisplay:10.37,2013-08-05 13:23:00,
2013-08-05 09:27:00,68.9,61.4,29.93,ENE,68,0.0,0.0,77,0.00,CLR,,0.00,WeatherDisplay:10.37,2013-08-05 13:27:00,
2013-08-05 09:32:00,68.9,61.4,29.93,ENE,68,0.0,0.0,77,0.00,CLR,,0.00,WeatherDisplay:10.37,2013-08-05 13:32:00,
2013-08-05 09:38:00,68.9,61.4,29.93,ENE,68,0.0,0.0,77,0.00,CLR,,0.00,WeatherDisplay:10.37,2013-08-05 13:38:00,
2013-08-05 09:42:00,68.9,61.4,29.93,ENE,68,0.0,0.0,77,0.00,CLR,,0.00,WeatherDisplay:10.37,2013-08-05 13:42:00,
2013-08-05 09:48:00,68.9,61.4,29.93,ENE,68,0.0,0.0,77,0.00,CLR,,0.00,WeatherDisplay:10.37,2013-08-05 13:48:00,
2013-08-05 09:54:00,68.9,61.4,29.93,ENE,68,0.0,0.0,77,0.00,CLR,,0.00,WeatherDisplay:10.37,2013-08-05 13:54:00,
2013-08-05 09:58:00,69.4,60.8,29.93,WSW,248,0.0,0.0,74,0.00,CLR,,0.00,WeatherDisplay:10.37,2013-08-05 13:58:00,
2013-08-05 10:04:00,69.4,60.8,29.93,WSW,248,0.0,0.0,74,0.00,CLR,,0.00,WeatherDisplay:10.37,2013-08-05 14:04:00,
2013-08-05 10:08:00,70.3,61.7,29.93,SE,135,0.0,0.0,74,0.00,CLR,,0.00,WeatherDisplay:10.37,2013-08-05 14:08:00,
2013-08-05 10:13:00,70.7,62.0,29.92,NE,45,0.0,0.0,74,0.00,CLR,,0.00,WeatherDisplay:10.37,2013-08-05 14:13:00,
2013-08-05 10:18:00,70.9,61.8,29.93,NE,45,0.0,0.0,73,0.00,CLR,,0.00,WeatherDisplay:10.37,2013-08-05 14:18:00,
2013-08-05 10:24:00,70.7,61.6,29.93,NE,45,0.0,0.0,73,0.00,CLR,,0.00,WeatherDisplay:10.37,2013-08-05 14:24:00,
2013-08-05 10:29:00,70.9,61.4,29.93,South,180,0.0,0.0,72,0.00,CLR,,0.00,WeatherDisplay:10.37,2013-08-05 14:29:00,
2013-08-05 10:34:00,70.9,61.4,29.93,South,180,0.0,0.0,72,0.00,CLR,,0.00,WeatherDisplay:10.37,2013-08-05 14:34:00,
2013-08-05 10:39:00,70.9,61.4,29.93,South,180,0.0,0.0,72,0.00,CLR,,0.00,WeatherDisplay:10.37,2013-08-05 14:39:00,
2013-08-05 10:44:00,71.4,61.9,29.93,NE,45,0.0,0.0,72,0.00,CLR,,0.00,WeatherDisplay:10.37,2013-08-05 14:44:00,
2013-08-05 10:49:00,71.4,61.9,29.93,NE,45,0.0,0.0,72,0.00,CLR,,0.00,WeatherDisplay:10.37,2013-08-05 14:49:00,
2013-08-05 10:54:00,71.4,61.9,29.93,NE,45,0.0,0.0,72,0.00,CLR,,0.00,WeatherDisplay:10.37,2013-08-05 14:54:00,
2013-08-05 10:59:00,71.4,61.9,29.93,NE,45,0.0,0.0,72,0.00,CLR,,0.00,WeatherDisplay:10.37,2013-08-05 14:59:00,
2013-08-05 11:04:00,71.4,61.9,29.93,NE,45,0.0,0.0,72,0.00,CLR,,0.00,WeatherDisplay:10.37,2013-08-05 15:04:00,
2013-08-05 11:09:00,71.4,61.9,29.93,NE,45,0.0,0.0,72,0.00,CLR,,0.00,WeatherDisplay:10.37,2013-08-05 15:09:00,
2013-08-05 11:15:00,71.4,61.9,29.93,NE,45,0.0,0.0,72,0.00,CLR,,0.00,WeatherDisplay:10.37,2013-08-05 15:15:00,
2013-08-05 11:20:00,71.4,61.9,29.93,NE,45,0.0,0.0,72,0.00,CLR,,0.00,WeatherDisplay:10.37,2013-08-05 15:20:00,
2013-08-05 11:25:00,73.9,64.3,29.93,East,90,0.0,0.0,72,0.00,CLR,,0.00,WeatherDisplay:10.37,2013-08-05 15:25:00,
2013-08-05 11:30:00,73.9,64.3,29.93,East,90,0.0,0.0,72,0.00,CLR,,0.00,WeatherDisplay:10.37,2013-08-05 15:30:00,
2013-08-05 11:35:00,73.9,64.3,29.93,East,90,0.0,0.0,72,0.00,CLR,,0.00,WeatherDisplay:10.37,2013-08-05 15:35:00,
2013-08-05 11:41:00,73.9,64.3,29.93,East,90,0.0,0.0,72,0.00,CLR,,0.00,WeatherDisplay:10.37,2013-08-05 15:41:00,
2013-08-05 11:46:00,74.8,64.4,29.92,SE,135,0.0,0.0,70,0.00,CLR,,0.00,WeatherDisplay:10.37,2013-08-05 15:46:00,
2013-08-05 11:51:00,74.8,64.4,29.92,SE,135,0.0,0.0,70,0.00,CLR,,0.00,WeatherDisplay:10.37,2013-08-05 15:51:00,
2013-08-05 11:56:00,74.8,64.4,29.92,SE,135,0.0,0.0,70,0.00,CLR,,0.00,WeatherDisplay:10.37,2013-08-05 15:56:00,
2013-08-05 12:03:00,75.9,65.0,29.92,WSW,248,0.0,0.0,69,0.00,CLR,,0.00,WeatherDisplay:10.37,2013-08-05 16:03:00,
2013-08-05 12:08:00,75.9,65.0,29.92,WSW,248,0.0,0.0,69,0.00,CLR,,0.00,WeatherDisplay:10.37,2013-08-05 16:08:00,
2013-08-05 12:13:00,75.9,65.0,29.92,WSW,248,0.0,0.0,69,0.00,CLR,,0.00,WeatherDisplay:10.37,2013-08-05 16:13:00,
2013-08-05 12:18:00,75.9,65.0,29.92,WSW,248,0.0,0.0,69,0.00,CLR,,0.00,WeatherDisplay:10.37,2013-08-05 16:18:00,
2013-08-05 12:22:00,75.9,65.0,29.92,WSW,248,0.0,0.0,69,0.00,CLR,,0.00,WeatherDisplay:10.37,2013-08-05 16:22:00,
2013-08-05 12:28:00,77.4,66.0,29.92,SSW,202,0.0,0.0,68,0.00,CLR,,0.00,WeatherDisplay:10.37,2013-08-05 16:28:00,
2013-08-05 12:33:00,77.4,66.0,29.92,SSW,202,0.0,0.0,68,0.00,CLR,,0.00,WeatherDisplay:10.37,2013-08-05 16:33:00,
2013-08-05 12:38:00,78.3,66.8,29.92,SSE,158,0.0,0.0,68,0.00,CLR,,0.00,WeatherDisplay:10.37,2013-08-05 16:38:00,
2013-08-05 12:43:00,78.3,66.8,29.92,SSE,158,0.0,0.0,68,0.00,CLR,,0.00,WeatherDisplay:10.37,2013-08-05 16:43:00,
2013-08-05 12:48:00,77.9,66.1,29.91,SSE,158,0.0,0.0,67,0.00,CLR,,0.00,WeatherDisplay:10.37,2013-08-05 16:48:00,
2013-08-05 12:53:00,77.9,66.1,29.91,SSE,158,0.0,0.0,67,0.00,CLR,,0.00,WeatherDisplay:10.37,2013-08-05 16:53:00,
2013-08-05 12:58:00,77.9,66.1,29.91,SSE,158,0.0,0.0,67,0.00,CLR,,0.00,WeatherDisplay:10.37,2013-08-05 16:58:00,
2013-08-05 13:03:00,77.9,66.1,29.91,SSE,158,0.0,0.0,67,0.00,CLR,,0.00,WeatherDisplay:10.37,2013-08-05 17:03:00,
2013-08-05 13:08:00,78.4,66.6,29.91,SSE,158,0.0,0.0,67,0.00,CLR,,0.00,WeatherDisplay:10.37,2013-08-05 17:08:00,
2013-08-05 13:13:00,78.4,66.6,29.91,SSE,158,0.0,0.0,67,0.00,CLR,,0.00,WeatherDisplay:10.37,2013-08-05 17:13:00,
2013-08-05 13:18:00,78.4,66.6,29.91,SSE,158,0.0,0.0,67,0.00,CLR,,0.00,WeatherDisplay:10.37,2013-08-05 17:18:00,
2013-08-05 13:23:00,78.4,66.6,29.91,SSE,158,0.0,0.0,67,0.00,CLR,,0.00,WeatherDisplay:10.37,2013-08-05 17:23:00,
2013-08-05 13:29:00,78.4,66.6,29.91,SSE,158,0.0,0.0,67,0.00,CLR,,0.00,WeatherDisplay:10.37,2013-08-05 17:29:00,
2013-08-05 13:34:00,78.4,66.6,29.91,SSE,158,0.0,0.0,67,0.00,CLR,,0.00,WeatherDisplay:10.37,2013-08-05 17:34:00,
2013-08-05 13:39:00,78.4,66.6,29.91,SSE,158,0.0,0.0,67,0.00,CLR,,0.00,WeatherDisplay:10.37,2013-08-05 17:39:00,
2013-08-05 13:44:00,78.4,66.6,29.91,SSE,158,0.0,0.0,67,0.00,CLR,,0.00,WeatherDisplay:10.37,2013-08-05 17:44:00,
2013-08-05 13:49:00,79.7,68.2,29.88,West,270,0.0,0.0,68,0.00,CLR,,0.00,WeatherDisplay:10.37,2013-08-05 17:49:00,
2013-08-05 13:54:00,79.7,68.2,29.88,WSW,245,0.0,0.0,68,0.00,CLR,,0.00,WeatherDisplay:10.37,2013-08-05 17:54:00,
2013-08-05 14:00:00,80.8,69.2,29.88,SSW,202,0.0,0.0,68,0.00,CLR,,0.00,WeatherDisplay:10.37,2013-08-05 18:00:00,
2013-08-05 14:05:00,80.8,69.2,29.88,SSW,202,0.0,0.0,68,0.00,CLR,,0.00,WeatherDisplay:10.37,2013-08-05 18:05:00,
2013-08-05 14:10:00,80.4,68.5,29.88,WSW,248,0.0,0.0,67,0.00,CLR,,0.00,WeatherDisplay:10.37,2013-08-05 18:10:00,
2013-08-05 14:16:00,80.4,68.5,29.88,WSW,248,0.0,0.0,67,0.00,CLR,,0.00,WeatherDisplay:10.37,2013-08-05 18:16:00,
2013-08-05 14:22:00,80.4,68.5,29.88,SSW,202,0.0,0.0,67,0.00,CLR,,0.00,WeatherDisplay:10.37,2013-08-05 18:22:00,
2013-08-05 14:27:00,80.6,68.6,29.88,SSW,202,0.0,0.0,67,0.00,CLR,,0.00,WeatherDisplay:10.37,2013-08-05 18:27:00,
2013-08-05 14:32:00,80.6,68.6,29.88,SSW,202,0.0,0.0,67,0.00,CLR,,0.00,WeatherDisplay:10.37,2013-08-05 18:32:00,
2013-08-05 14:37:00,81.0,69.0,29.88,SSW,202,0.0,0.0,67,0.00,CLR,,0.00,WeatherDisplay:10.37,2013-08-05 18:37:00,
2013-08-05 14:42:00,80.8,69.2,29.87,SE,135,0.0,0.0,68,0.00,CLR,,0.00,WeatherDisplay:10.37,2013-08-05 18:42:00,
2013-08-05 14:47:00,80.8,69.2,29.87,SE,135,0.0,0.0,68,0.00,CLR,,0.00,WeatherDisplay:10.37,2013-08-05 18:47:00,
2013-08-05 14:52:00,83.3,69.4,29.87,SE,135,0.0,0.0,63,0.00,CLR,,0.00,WeatherDisplay:10.37,2013-08-05 18:52:00,
2013-08-05 14:57:00,83.3,69.4,29.87,SE,135,0.0,0.0,63,0.00,CLR,,0.00,WeatherDisplay:10.37,2013-08-05 18:57:00,
2013-08-05 15:02:00,83.3,69.4,29.87,SE,135,0.0,0.0,63,0.00,CLR,,0.00,WeatherDisplay:10.37,2013-08-05 19:02:00,
2013-08-05 15:07:00,83.3,69.4,29.87,SE,135,0.0,0.0,63,0.00,CLR,,0.00,WeatherDisplay:10.37,2013-08-05 19:07:00,
2013-08-05 15:12:00,83.3,69.4,29.87,SE,135,0.0,0.0,63,0.00,CLR,,0.00,WeatherDisplay:10.37,2013-08-05 19:12:00,
2013-08-05 15:17:00,84.6,70.6,29.86,South,180,0.0,0.0,63,0.00,CLR,,0.00,WeatherDisplay:10.37,2013-08-05 19:17:00,
2013-08-05 15:23:00,84.6,70.6,29.86,South,180,0.0,0.0,63,0.00,CLR,,0.00,WeatherDisplay:10.37,2013-08-05 19:23:00,
2013-08-05 15:28:00,84.6,70.6,29.86,South,180,0.0,0.0,63,0.00,CLR,,0.00,WeatherDisplay:10.37,2013-08-05 19:28:00,
2013-08-05 15:33:00,84.6,70.6,29.86,South,180,0.0,0.0,63,0.00,CLR,,0.00,WeatherDisplay:10.37,2013-08-05 19:33:00,
2013-08-05 15:38:00,84.6,70.6,29.86,South,180,0.0,0.0,63,0.00,CLR,,0.00,WeatherDisplay:10.37,2013-08-05 19:38:00,
2013-08-05 15:43:00,84.6,70.6,29.86,South,180,0.0,0.0,63,0.00,CLR,,0.00,WeatherDisplay:10.37,2013-08-05 19:43:00,
2013-08-05 15:48:00,81.1,69.6,29.85,SE,135,0.0,0.0,68,0.00,CLR,,0.00,WeatherDisplay:10.37,2013-08-05 19:48:00,
2013-08-05 15:53:00,81.1,69.6,29.85,SE,135,0.0,0.0,68,0.00,CLR,,0.00,WeatherDisplay:10.37,2013-08-05 19:53:00,
2013-08-05 15:58:00,82.4,70.3,29.84,WSW,248,0.0,0.0,67,0.00,CLR,,0.00,WeatherDisplay:10.37,2013-08-05 19:58:00,
2013-08-05 16:04:00,82.2,69.3,29.84,WSW,248,0.0,0.0,65,0.00,CLR,,0.00,WeatherDisplay:10.37,2013-08-05 20:04:00,
2013-08-05 16:09:00,81.7,69.2,29.85,WSW,248,0.0,0.0,66,0.00,CLR,,0.00,WeatherDisplay:10.37,2013-08-05 20:09:00,
2013-08-05 16:14:00,81.7,69.2,29.85,WSW,248,0.0,0.0,66,0.00,CLR,,0.00,WeatherDisplay:10.37,2013-08-05 20:14:00,
2013-08-05 16:19:00,81.5,69.5,29.85,WSW,241,0.0,0.0,67,0.00,CLR,,0.00,WeatherDisplay:10.37,2013-08-05 20:19:00,
2013-08-05 16:24:00,81.5,69.5,29.85,SW,230,0.0,0.0,67,0.00,CLR,,0.00,WeatherDisplay:10.37,2013-08-05 20:24:00,
2013-08-05 16:29:00,81.5,69.5,29.85,SW,225,0.0,0.0,67,0.00,CLR,,0.00,WeatherDisplay:10.37,2013-08-05 20:29:00,
2013-08-05 16:34:00,81.5,69.5,29.85,SW,225,0.0,0.0,67,0.00,CLR,,0.00,WeatherDisplay:10.37,2013-08-05 20:34:00,
2013-08-05 16:40:00,81.7,69.7,29.84,WSW,248,0.0,0.0,67,0.00,CLR,,0.00,WeatherDisplay:10.37,2013-08-05 20:40:00,
2013-08-05 16:46:00,81.7,69.7,29.84,WSW,248,0.0,0.0,67,0.00,CLR,,0.00,WeatherDisplay:10.37,2013-08-05 20:46:00,
2013-08-05 16:52:00,81.7,69.7,29.84,WSW,248,0.0,0.0,67,0.00,CLR,,0.00,WeatherDisplay:10.37,2013-08-05 20:52:00,
2013-08-05 16:57:00,81.7,69.7,29.84,SW,225,0.0,0.0,67,0.00,CLR,,0.00,WeatherDisplay:10.37,2013-08-05 20:57:00,
2013-08-05 17:02:00,81.7,69.7,29.84,SW,225,0.0,0.0,67,0.00,CLR,,0.00,WeatherDisplay:10.37,2013-08-05 21:02:00,
2013-08-05 17:07:00,81.0,69.4,29.83,SSW,202,0.0,0.0,68,0.00,CLR,,0.00,WeatherDisplay:10.37,2013-08-05 21:07:00,
2013-08-05 17:12:00,80.8,69.7,29.83,South,180,0.0,0.0,69,0.00,CLR,,0.00,WeatherDisplay:10.37,2013-08-05 21:12:00,
2013-08-05 17:17:00,80.8,70.1,29.83,SSW,202,0.0,0.0,70,0.00,CLR,,0.00,WeatherDisplay:10.37,2013-08-05 21:17:00,
2013-08-05 17:22:00,80.8,70.1,29.83,SSW,202,0.0,0.0,70,0.00,CLR,,0.00,WeatherDisplay:10.37,2013-08-05 21:22:00,
2013-08-05 17:28:00,81.0,69.4,29.83,WSW,248,0.0,0.0,68,0.00,CLR,,0.00,WeatherDisplay:10.37,2013-08-05 21:28:00,
2013-08-05 17:33:00,80.8,69.7,29.83,SW,225,0.0,0.0,69,0.00,CLR,,0.00,WeatherDisplay:10.37,2013-08-05 21:33:00,
2013-08-05 17:38:00,80.8,69.7,29.83,SW,225,0.0,0.0,69,0.00,CLR,,0.00,WeatherDisplay:10.37,2013-08-05 21:38:00,
2013-08-05 17:43:00,80.8,69.7,29.83,SW,225,0.0,0.0,69,0.00,CLR,,0.00,WeatherDisplay:10.37,2013-08-05 21:43:00,
2013-08-05 17:48:00,80.8,69.7,29.83,SW,225,0.0,0.0,69,0.00,CLR,,0.00,WeatherDisplay:10.37,2013-08-05 21:48:00,
2013-08-05 17:53:00,78.6,68.0,29.82,SW,225,0.0,0.0,70,0.00,CLR,,0.00,WeatherDisplay:10.37,2013-08-05 21:53:00,
2013-08-05 17:59:00,78.6,68.0,29.82,SW,225,0.0,0.0,70,0.00,CLR,,0.00,WeatherDisplay:10.37,2013-08-05 21:59:00,
2013-08-05 18:04:00,78.6,68.0,29.82,SW,225,0.0,0.0,70,0.00,CLR,,0.00,WeatherDisplay:10.37,2013-08-05 22:04:00,
2013-08-05 18:09:00,78.6,68.0,29.82,SW,225,0.0,0.0,70,0.00,CLR,,0.00,WeatherDisplay:10.37,2013-08-05 22:09:00,
2013-08-05 18:14:00,78.6,68.0,29.82,SW,225,0.0,0.0,70,0.00,CLR,,0.00,WeatherDisplay:10.37,2013-08-05 22:14:00,
2013-08-05 18:19:00,79.2,69.4,29.83,West,270,0.0,0.0,72,0.00,CLR,,0.00,WeatherDisplay:10.37,2013-08-05 22:19:00,
2013-08-05 18:24:00,79.2,69.4,29.83,West,270,0.0,0.0,72,0.00,CLR,,0.00,WeatherDisplay:10.37,2013-08-05 22:24:00,
2013-08-05 18:29:00,78.3,68.9,29.82,West,266,0.0,0.0,73,0.00,CLR,,0.00,WeatherDisplay:10.37,2013-08-05 22:29:00,
2013-08-05 18:34:00,78.6,69.2,29.82,WSW,238,0.0,0.0,73,0.00,CLR,,0.00,WeatherDisplay:10.37,2013-08-05 22:34:00,
2013-08-05 18:39:00,79.2,69.8,29.82,SSW,209,0.0,0.0,73,0.00,CLR,,0.00,WeatherDisplay:10.37,2013-08-05 22:39:00,
2013-08-05 18:44:00,79.2,69.8,29.82,SSW,202,0.0,0.0,73,0.00,CLR,,0.00,WeatherDisplay:10.37,2013-08-05 22:44:00,
2013-08-05 18:49:00,79.2,69.8,29.82,SSW,202,0.0,0.0,73,0.00,CLR,,0.00,WeatherDisplay:10.37,2013-08-05 22:49:00,
2013-08-05 18:55:00,79.2,69.8,29.82,SSW,202,0.0,0.0,73,0.00,CLR,,0.00,WeatherDisplay:10.37,2013-08-05 22:55:00,
2013-08-05 19:00:00,77.7,68.8,29.83,SW,225,0.0,0.0,74,0.00,CLR,,0.00,WeatherDisplay:10.37,2013-08-05 23:00:00,
2013-08-05 19:05:00,77.7,68.8,29.83,SW,225,0.0,0.0,74,0.00,CLR,,0.00,WeatherDisplay:10.37,2013-08-05 23:05:00,
2013-08-05 19:10:00,77.7,68.8,29.83,SW,225,0.0,0.0,74,0.00,CLR,,0.00,WeatherDisplay:10.37,2013-08-05 23:10:00,
2013-08-05 19:15:00,77.7,68.8,29.83,SW,225,0.0,0.0,74,0.00,CLR,,0.00,WeatherDisplay:10.37,2013-08-05 23:15:00,
2013-08-05 19:20:00,77.2,68.6,29.83,SSW,202,0.0,0.0,75,0.00,CLR,,0.00,WeatherDisplay:10.37,2013-08-05 23:20:00,
2013-08-05 19:26:00,77.2,68.6,29.83,SSW,202,0.0,0.0,75,0.00,CLR,,0.00,WeatherDisplay:10.37,2013-08-05 23:26:00,
2013-08-05 19:31:00,77.2,68.6,29.83,SSW,202,0.0,0.0,75,0.00,CLR,,0.00,WeatherDisplay:10.37,2013-08-05 23:31:00,
2013-08-05 19:36:00,76.5,68.7,29.83,SSW,202,0.0,0.0,77,0.00,CLR,,0.00,WeatherDisplay:10.37,2013-08-05 23:36:00,
2013-08-05 19:42:00,76.3,68.9,29.83,SSW,202,0.0,0.0,78,0.00,CLR,,0.00,WeatherDisplay:10.37,2013-08-05 23:42:00,
2013-08-05 19:47:00,76.3,68.9,29.83,SSW,202,0.0,0.0,78,0.00,CLR,,0.00,WeatherDisplay:10.37,2013-08-05 23:47:00,
2013-08-05 19:52:00,75.9,68.6,29.83,SSW,202,0.0,0.0,78,0.00,CLR,,0.00,WeatherDisplay:10.37,2013-08-05 23:52:00,
2013-08-05 19:57:00,75.9,68.6,29.83,SSW,202,0.0,0.0,78,0.00,CLR,,0.00,WeatherDisplay:10.37,2013-08-05 23:57:00,
2013-08-05 20:02:00,75.6,68.6,29.84,SSW,202,0.0,0.0,79,0.00,CLR,,0.00,WeatherDisplay:10.37,2013-08-06 00:02:00,
2013-08-05 20:07:00,75.4,68.4,29.83,SSW,202,0.0,0.0,79,0.00,CLR,,0.00,WeatherDisplay:10.37,2013-08-06 00:07:00,
2013-08-05 20:13:00,75.4,68.4,29.83,SSW,202,0.0,0.0,79,0.00,CLR,,0.00,WeatherDisplay:10.37,2013-08-06 00:13:00,
2013-08-05 20:18:00,75.0,68.1,29.84,SSW,202,0.0,0.0,79,0.00,CLR,,0.00,WeatherDisplay:10.37,2013-08-06 00:18:00,
2013-08-05 20:23:00,75.0,68.1,29.84,SSW,202,0.0,0.0,79,0.00,CLR,,0.00,WeatherDisplay:10.37,2013-08-06 00:23:00,
2013-08-05 20:28:00,74.8,68.3,29.83,SSW,202,0.0,0.0,80,0.00,CLR,,0.00,WeatherDisplay:10.37,2013-08-06 00:28:00,
2013-08-05 20:33:00,74.8,68.3,29.83,SSW,202,0.0,0.0,80,0.00,CLR,,0.00,WeatherDisplay:10.37,2013-08-06 00:33:00,
2013-08-05 20:39:00,74.5,68.3,29.84,SSE,158,0.0,0.0,81,0.00,CLR,,0.00,WeatherDisplay:10.37,2013-08-06 00:39:00,
2013-08-05 20:44:00,74.5,68.3,29.84,SSE,158,0.0,0.0,81,0.00,CLR,,0.00,WeatherDisplay:10.37,2013-08-06 00:44:00,
2013-08-05 20:49:00,74.5,68.3,29.84,SSE,158,0.0,0.0,81,0.00,CLR,,0.00,WeatherDisplay:10.37,2013-08-06 00:49:00,
2013-08-05 20:54:00,74.5,68.3,29.84,SSE,158,0.0,0.0,81,0.00,CLR,,0.00,WeatherDisplay:10.37,2013-08-06 00:54:00,
2013-08-05 20:59:00,74.5,68.3,29.84,SSE,158,0.0,0.0,81,0.00,CLR,,0.00,WeatherDisplay:10.37,2013-08-06 00:59:00,
2013-08-05 21:04:00,74.5,68.3,29.84,SSE,158,0.0,0.0,81,0.00,CLR,,0.00,WeatherDisplay:10.37,2013-08-06 01:04:00,
2013-08-05 21:09:00,74.5,68.3,29.84,SSE,158,0.0,0.0,81,0.00,CLR,,0.00,WeatherDisplay:10.37,2013-08-06 01:09:00,
2013-08-05 21:14:00,74.5,68.3,29.84,SSE,158,0.0,0.0,81,0.00,CLR,,0.00,WeatherDisplay:10.37,2013-08-06 01:14:00,
2013-08-05 21:19:00,74.5,68.3,29.84,SSE,158,0.0,0.0,81,0.00,CLR,,0.00,WeatherDisplay:10.37,2013-08-06 01:19:00,
2013-08-05 21:24:00,74.5,68.3,29.84,SSE,158,0.0,0.0,81,0.00,CLR,,0.00,WeatherDisplay:10.37,2013-08-06 01:24:00,
2013-08-05 21:29:00,74.5,68.3,29.84,SSE,158,0.0,0.0,81,0.00,CLR,,0.00,WeatherDisplay:10.37,2013-08-06 01:29:00,
2013-08-05 21:34:00,74.5,68.3,29.84,SSE,158,0.0,0.0,81,0.00,CLR,,0.00,WeatherDisplay:10.37,2013-08-06 01:34:00,
2013-08-05 21:40:00,74.5,68.3,29.84,SSE,158,0.0,0.0,81,0.00,CLR,,0.00,WeatherDisplay:10.37,2013-08-06 01:40:00,
2013-08-05 21:45:00,74.5,68.3,29.84,SSE,158,0.0,0.0,81,0.00,CLR,,0.00,WeatherDisplay:10.37,2013-08-06 01:45:00,
2013-08-05 21:50:00,74.5,68.3,29.84,SSE,158,0.0,0.0,81,0.00,CLR,,0.00,WeatherDisplay:10.37,2013-08-06 01:50:00,
2013-08-05 21:55:00,74.5,68.3,29.84,SSE,158,0.0,0.0,81,0.00,CLR,,0.00,WeatherDisplay:10.37,2013-08-06 01:55:00,
2013-08-05 22:00:00,74.5,68.3,29.84,SSE,158,0.0,0.0,81,0.00,CLR,,0.00,WeatherDisplay:10.37,2013-08-06 02:00:00,
2013-08-05 22:05:00,74.5,68.3,29.84,SSE,158,0.0,0.0,81,0.00,CLR,,0.00,WeatherDisplay:10.37,2013-08-06 02:05:00,
2013-08-05 22:10:00,74.5,68.3,29.84,SSE,158,0.0,0.0,81,0.00,CLR,,0.00,WeatherDisplay:10.37,2013-08-06 02:10:00,
2013-08-05 22:15:00,74.5,68.3,29.84,SSE,158,0.0,0.0,81,0.00,CLR,,0.00,WeatherDisplay:10.37,2013-08-06 02:15:00,
2013-08-05 22:20:00,74.5,68.3,29.84,SSE,158,0.0,0.0,81,0.00,CLR,,0.00,WeatherDisplay:10.37,2013-08-06 02:20:00,
2013-08-05 22:25:00,74.5,68.3,29.84,SSE,158,0.0,0.0,81,0.00,CLR,,0.00,WeatherDisplay:10.37,2013-08-06 02:25:00,
2013-08-05 22:30:00,74.5,68.3,29.84,SSE,158,0.0,0.0,81,0.00,CLR,,0.00,WeatherDisplay:10.37,2013-08-06 02:30:00,
2013-08-05 22:35:00,70.2,66.4,29.85,SE,135,0.0,0.0,88,0.04,RA,,0.04,WeatherDisplay:10.37,2013-08-06 02:35:00,
2013-08-05 22:40:00,70.2,66.4,29.85,SE,135,0.0,0.0,88,0.04,RA,,0.04,WeatherDisplay:10.37,2013-08-06 02:40:00,
2013-08-05 22:45:00,70.2,66.4,29.85,SE,135,0.0,0.0,88,0.04,CLR,,0.04,WeatherDisplay:10.37,2013-08-06 02:45:00,
2013-08-05 22:50:00,70.2,66.4,29.85,SE,135,0.0,0.0,88,0.04,CLR,,0.04,WeatherDisplay:10.37,2013-08-06 02:50:00,
2013-08-05 22:55:00,70.2,66.4,29.85,SE,135,0.0,0.0,88,0.04,CLR,,0.04,WeatherDisplay:10.37,2013-08-06 02:55:00,
2013-08-05 23:01:00,70.2,66.4,29.85,SE,135,0.0,0.0,88,0.04,CLR,,0.04,WeatherDisplay:10.37,2013-08-06 03:01:00,
2013-08-05 23:06:00,70.2,66.4,29.85,SE,135,0.0,0.0,88,0.04,CLR,,0.04,WeatherDisplay:10.37,2013-08-06 03:06:00,
2013-08-05 23:11:00,70.2,66.4,29.85,SE,135,0.0,0.0,88,0.04,CLR,,0.04,WeatherDisplay:10.37,2013-08-06 03:11:00,
2013-08-05 23:16:00,70.2,66.4,29.85,SE,135,0.0,0.0,88,0.04,CLR,,0.04,WeatherDisplay:10.37,2013-08-06 03:16:00,
2013-08-05 23:21:00,70.2,66.4,29.85,SE,135,0.0,0.0,88,0.04,CLR,,0.04,WeatherDisplay:10.37,2013-08-06 03:21:00,
2013-08-05 23:26:00,70.2,66.4,29.85,SE,135,0.0,0.0,88,0.04,CLR,,0.04,WeatherDisplay:10.37,2013-08-06 03:26:00,
2013-08-05 23:31:00,70.2,66.4,29.85,SE,135,0.0,0.0,88,0.00,CLR,,0.04,WeatherDisplay:10.37,2013-08-06 03:31:00,
2013-08-05 23:36:00,70.2,66.4,29.85,SE,135,0.0,0.0,88,0.00,CLR,,0.04,WeatherDisplay:10.37,2013-08-06 03:36:00,
2013-08-05 23:41:00,69.6,66.2,29.85,SE,135,0.0,0.0,89,0.00,CLR,,0.04,WeatherDisplay:10.37,2013-08-06 03:41:00,
2013-08-05 23:46:00,69.6,66.2,29.85,SE,135,0.0,0.0,89,0.00,CLR,,0.04,WeatherDisplay:10.37,2013-08-06 03:46:00,
2013-08-05 23:51:00,69.6,66.2,29.85,SE,135,0.0,0.0,89,0.00,CLR,,0.04,WeatherDisplay:10.37,2013-08-06 03:51:00,
2013-08-05 23:56:00,69.6,66.2,29.85,SE,135,0.0,0.0,89,0.00,CLR,,0.04,WeatherDisplay:10.37,2013-08-06 03:56:00,